Location: Ch�risy
(50.2331°N, 2.9131°E)
Time: 01:35:48
(UTC+00:00)

TIMED - Pass Details

Date: 17 January 2021
Orbit: 602 x 604 km, 74.1° (Epoch: 28 February)

Event Time Altitude Azimuth Distance (km) Brightness Sun altitude
Rises 17:20:11 0° 338° (NNW) 2,871 8.0 -9.8°
Reaches altitude 10° 17:22:27 10° 342° (NNW) 1,963 7.1 -10.2°
Maximum altitude 17:26:48 62° 63° (ENE) 687 4.5 -10.8°
Drops below altitude 10° 17:31:07 10° 145° (SE) 1,949 6.9 -11.5°
Sets 17:33:22 0° 148° (SSE) 2,848 7.8 -11.8°
